TimeEDT,TemperatureF,Dew PointF,Humidity,Sea Level PressureIn,VisibilityMPH,Wind Direction,Wind SpeedMPH,Gust SpeedMPH,PrecipitationIn,Events,Conditions,WindDirDegrees,DateUTC
12:53 AM,33.1,25.0,72,30.00,10.0,WNW,8.1,-,0.00,,Scattered Clouds,290,2014-03-13 04:53:00
1:53 AM,32.0,27.0,82,30.01,10.0,SW,5.8,-,0.00,Snow,Light Snow,220,2014-03-13 05:53:00
2:53 AM,33.1,27.0,78,30.01,10.0,WSW,5.8,-,0.00,,Overcast,250,2014-03-13 06:53:00
3:53 AM,33.1,25.0,72,30.01,5.0,NW,5.8,-,0.00,Snow,Light Snow,310,2014-03-13 07:53:00
4:53 AM,32.0,27.0,82,30.02,10.0,WSW,3.5,-,0.00,,Overcast,240,2014-03-13 08:53:00
5:53 AM,32.0,25.0,75,30.04,9.0,WSW,8.1,-,0.00,Snow,Light Snow,250,2014-03-13 09:53:00
6:39 AM,30.9,25.0,79,30.06,9.0,WSW,10.4,-,0.00,Snow,Light Snow,240,2014-03-13 10:39:00
6:53 AM,32.0,26.1,79,30.07,10.0,WSW,9.2,-,0.00,,Overcast,250,2014-03-13 10:53:00
7:53 AM,30.9,21.9,69,30.11,9.0,NNW,10.4,-,0.00,,Overcast,340,2014-03-13 11:53:00
8:53 AM,33.1,18.0,54,30.14,10.0,North,11.5,-,N/A,,Mostly Cloudy,360,2014-03-13 12:53:00
9:53 AM,33.1,19.9,59,30.18,10.0,North,9.2,-,N/A,,Mostly Cloudy,360,2014-03-13 13:53:00
10:53 AM,35.1,19.0,52,30.21,10.0,Calm,Calm,-,N/A,,Mostly Cloudy,0,2014-03-13 14:53:00
11:53 AM,36.0,18.0,48,30.23,10.0,NW,5.8,-,N/A,,Scattered Clouds,320,2014-03-13 15:53:00
12:53 PM,37.9,12.9,36,30.22,10.0,NW,11.5,-,N/A,,Partly Cloudy,310,2014-03-13 16:53:00
1:53 PM,39.9,12.0,32,30.22,10.0,WNW,3.5,-,N/A,,Partly Cloudy,290,2014-03-13 17:53:00
2:53 PM,42.1,10.0,27,30.19,10.0,Variable,3.5,-,N/A,,Clear,0,2014-03-13 18:53:00
3:53 PM,44.1,10.9,26,30.18,10.0,Calm,Calm,-,N/A,,Clear,0,2014-03-13 19:53:00
4:53 PM,44.1,12.0,27,30.18,10.0,SSW,5.8,-,0.00,,Clear,200,2014-03-13 20:53:00
5:53 PM,45.0,10.9,25,30.19,10.0,West,5.8,-,N/A,,Clear,280,2014-03-13 21:53:00
6:53 PM,44.1,12.9,28,30.21,10.0,SW,5.8,-,N/A,,Clear,230,2014-03-13 22:53:00
7:53 PM,39.0,12.9,34,30.23,10.0,South,4.6,-,N/A,,Clear,170,2014-03-13 23:53:00
8:53 PM,39.0,12.0,33,30.23,10.0,South,5.8,-,N/A,,Clear,180,2014-03-14 00:53:00
9:53 PM,37.9,14.0,38,30.24,10.0,SSE,4.6,-,N/A,,Clear,150,2014-03-14 01:53:00
10:53 PM,37.0,14.0,39,30.24,10.0,Calm,Calm,-,N/A,,Clear,0,2014-03-14 02:53:00